{"data":{"norad_id":64164,"intl_designator":"2025-112U","name":"STARLINK-34263","alt_names":[],"object_type":"PAYLOAD","status":"ACTIVE","operator":null,"country":"US","launch_date":"2025-05-27","launch_site_code":"AFWTR","launch_vehicle":null,"mission":null,"orbit_class":"UNKNOWN","rcs_meters":null,"size_class":null,"mass_kg":null,"dimensions":null,"purposes":["comms"],"wikipedia_slug":null,"has_3d_model":false,"image_url":null,"decayed_at":null,"tle_current":{"epoch":"2026-05-25T03:49:56.550720Z","epoch_age_seconds":71572,"freshness":"FRESH","line1":"1 64164U 25112U   26145.15968230  .00004816  00000+0  33765-3 0  9999","line2":"2 64164  97.4493 196.5154 0001594 175.8452 184.2789 15.05647306 54815","mean_motion":15.05647306,"eccentricity":0.0001594,"inclination_deg":97.4493,"raan_deg":196.5154,"arg_perigee_deg":175.8452,"mean_anomaly_deg":184.2789,"bstar":0.00033765,"rev_number":5481,"period_min":95.639928040359,"perigee_km":548.41514919637,"apogee_km":550.62368606232,"semimajor_km":6927.6564176293,"source":"CELESTRAK","updated_at":"2026-05-25T13:38:20.306772Z"}}}